Time,TemperatureF,DewpointF,PressureIn,WindDirection,WindDirectionDegrees,WindSpeedMPH,WindSpeedGustMPH,Humidity,HourlyPrecipIn,Conditions,Clouds,dailyrainin,SoftwareType,DateUTC
2013-08-11 00:01:00,64.1,61.7,30.09,East,101,0.0,0.0,92,0.00,,,0.00,WUHU216DAVISVP2,2013-08-11 04:01:00,
2013-08-11 00:06:00,63.9,61.8,30.09,East,101,0.0,0.0,93,0.00,,,0.00,WUHU216DAVISVP2,2013-08-11 04:06:00,
2013-08-11 00:11:00,63.6,61.5,30.09,East,101,0.0,0.0,93,0.00,,,0.00,WUHU216DAVISVP2,2013-08-11 04:11:00,
2013-08-11 00:17:00,63.5,61.4,30.09,East,101,0.0,0.0,93,0.00,,,0.00,WUHU216DAVISVP2,2013-08-11 04:17:00,
2013-08-11 00:22:00,63.2,61.4,30.08,East,101,0.0,0.0,94,0.00,,,0.00,WUHU216DAVISVP2,2013-08-11 04:22:00,
2013-08-11 00:27:00,63.0,61.2,30.08,East,101,0.0,0.0,94,0.00,,,0.00,WUHU216DAVISVP2,2013-08-11 04:27:00,
2013-08-11 00:32:00,62.7,60.9,30.08,East,101,0.0,0.0,94,0.00,,,0.00,WUHU216DAVISVP2,2013-08-11 04:32:00,
2013-08-11 00:37:00,62.6,60.8,30.09,East,101,0.0,0.0,94,0.00,,,0.00,WUHU216DAVISVP2,2013-08-11 04:37:00,
2013-08-11 00:42:00,62.4,60.9,30.09,East,101,0.0,0.0,95,0.00,,,0.00,WUHU216DAVISVP2,2013-08-11 04:42:00,
2013-08-11 00:47:00,62.3,60.8,30.09,East,101,0.0,0.0,95,0.00,,,0.00,WUHU216DAVISVP2,2013-08-11 04:47:00,
2013-08-11 00:52:00,62.1,60.6,30.09,East,101,0.0,0.0,95,0.00,,,0.00,WUHU216DAVISVP2,2013-08-11 04:52:00,
2013-08-11 00:57:00,61.9,60.4,30.09,East,101,0.0,0.0,95,0.00,,,0.00,WUHU216DAVISVP2,2013-08-11 04:57:00,
2013-08-11 01:02:00,61.7,60.2,30.09,East,101,0.0,0.0,95,0.00,,,0.00,WUHU216DAVISVP2,2013-08-11 05:02:00,
2013-08-11 01:07:00,61.5,60.0,30.09,East,101,0.0,0.0,95,0.00,,,0.00,WUHU216DAVISVP2,2013-08-11 05:07:00,
2013-08-11 01:12:00,61.3,60.1,30.09,East,101,0.0,0.0,96,0.00,,,0.00,WUHU216DAVISVP2,2013-08-11 05:12:00,
2013-08-11 01:17:00,61.1,59.9,30.09,East,101,0.0,0.0,96,0.00,,,0.00,WUHU216DAVISVP2,2013-08-11 05:17:00,
2013-08-11 01:22:00,60.8,59.6,30.09,East,101,0.0,0.0,96,0.00,,,0.00,WUHU216DAVISVP2,2013-08-11 05:22:00,
2013-08-11 01:28:00,60.6,59.4,30.09,East,101,0.0,0.0,96,0.00,,,0.00,WUHU216DAVISVP2,2013-08-11 05:28:00,
2013-08-11 01:33:00,60.6,59.4,30.10,East,101,0.0,0.0,96,0.00,,,0.00,WUHU216DAVISVP2,2013-08-11 05:33:00,
2013-08-11 01:38:00,60.4,59.2,30.09,East,101,0.0,0.0,96,0.00,,,0.00,WUHU216DAVISVP2,2013-08-11 05:38:00,
2013-08-11 01:43:00,60.3,59.1,30.09,East,101,0.0,0.0,96,0.00,,,0.00,WUHU216DAVISVP2,2013-08-11 05:43:00,
2013-08-11 01:48:00,60.3,59.4,30.09,East,101,0.0,0.0,97,0.00,,,0.00,WUHU216DAVISVP2,2013-08-11 05:48:00,
2013-08-11 01:53:00,60.4,59.5,30.10,East,101,0.0,0.0,97,0.00,,,0.00,WUHU216DAVISVP2,2013-08-11 05:53:00,
2013-08-11 01:58:00,60.4,59.5,30.09,East,101,0.0,0.0,97,0.00,,,0.00,WUHU216DAVISVP2,2013-08-11 05:58:00,
2013-08-11 02:03:00,60.3,59.4,30.09,East,101,0.0,0.0,97,0.00,,,0.00,WUHU216DAVISVP2,2013-08-11 06:03:00,
2013-08-11 02:08:00,60.2,59.3,30.09,East,101,0.0,0.0,97,0.00,,,0.00,WUHU216DAVISVP2,2013-08-11 06:08:00,
2013-08-11 02:13:00,60.0,59.1,30.09,East,101,0.0,0.0,97,0.00,,,0.00,WUHU216DAVISVP2,2013-08-11 06:13:00,
2013-08-11 02:18:00,59.7,58.8,30.09,East,101,0.0,0.0,97,0.00,,,0.00,WUHU216DAVISVP2,2013-08-11 06:18:00,
2013-08-11 02:23:00,59.5,58.6,30.09,East,101,0.0,0.0,97,0.00,,,0.00,WUHU216DAVISVP2,2013-08-11 06:23:00,
2013-08-11 02:28:00,59.5,58.6,30.09,East,101,0.0,0.0,97,0.00,,,0.00,WUHU216DAVISVP2,2013-08-11 06:28:00,
2013-08-11 02:34:00,59.5,58.6,30.09,East,101,0.0,0.0,97,0.00,,,0.00,WUHU216DAVISVP2,2013-08-11 06:34:00,
2013-08-11 02:39:00,59.4,58.5,30.09,East,101,0.0,0.0,97,0.00,,,0.00,WUHU216DAVISVP2,2013-08-11 06:39:00,
2013-08-11 02:44:00,59.4,58.5,30.09,East,101,0.0,0.0,97,0.00,,,0.00,WUHU216DAVISVP2,2013-08-11 06:44:00,
2013-08-11 02:49:00,59.3,58.4,30.09,East,101,0.0,0.0,97,0.00,,,0.00,WUHU216DAVISVP2,2013-08-11 06:49:00,
2013-08-11 02:54:00,59.1,58.2,30.09,East,101,0.0,0.0,97,0.00,,,0.00,WUHU216DAVISVP2,2013-08-11 06:54:00,
2013-08-11 02:59:00,58.9,58.3,30.09,East,101,0.0,0.0,98,0.00,,,0.00,WUHU216DAVISVP2,2013-08-11 06:59:00,
2013-08-11 03:04:00,58.9,58.3,30.09,East,101,0.0,0.0,98,0.00,,,0.00,WUHU216DAVISVP2,2013-08-11 07:04:00,
2013-08-11 03:09:00,58.8,58.2,30.09,East,101,0.0,0.0,98,0.00,,,0.00,WUHU216DAVISVP2,2013-08-11 07:09:00,
2013-08-11 03:14:00,58.8,58.2,30.09,East,101,0.0,0.0,98,0.00,,,0.00,WUHU216DAVISVP2,2013-08-11 07:14:00,
2013-08-11 03:20:00,58.7,58.1,30.09,East,101,0.0,0.0,98,0.00,,,0.00,WUHU216DAVISVP2,2013-08-11 07:20:00,
2013-08-11 03:25:00,58.7,58.1,30.09,East,101,0.0,0.0,98,0.00,,,0.00,WUHU216DAVISVP2,2013-08-11 07:25:00,
2013-08-11 03:30:00,58.6,58.0,30.09,East,101,0.0,0.0,98,0.00,,,0.00,WUHU216DAVISVP2,2013-08-11 07:30:00,
2013-08-11 03:35:00,58.6,58.0,30.08,East,101,0.0,0.0,98,0.00,,,0.00,WUHU216DAVISVP2,2013-08-11 07:35:00,
2013-08-11 03:40:00,58.6,58.0,30.08,East,101,0.0,0.0,98,0.00,,,0.00,WUHU216DAVISVP2,2013-08-11 07:40:00,
2013-08-11 03:45:00,58.4,57.8,30.09,East,101,0.0,0.0,98,0.00,,,0.00,WUHU216DAVISVP2,2013-08-11 07:45:00,
2013-08-11 03:50:00,58.2,57.6,30.09,East,101,0.0,0.0,98,0.00,,,0.00,WUHU216DAVISVP2,2013-08-11 07:50:00,
2013-08-11 03:55:00,57.9,57.3,30.09,East,101,0.0,0.0,98,0.00,,,0.00,WUHU216DAVISVP2,2013-08-11 07:55:00,
2013-08-11 04:00:00,57.8,57.2,30.09,East,101,0.0,0.0,98,0.00,,,0.00,WUHU216DAVISVP2,2013-08-11 08:00:00,
2013-08-11 04:05:00,57.7,57.1,30.09,East,101,0.0,0.0,98,0.00,,,0.00,WUHU216DAVISVP2,2013-08-11 08:05:00,
2013-08-11 04:10:00,57.6,57.0,30.09,East,101,0.0,0.0,98,0.00,,,0.00,WUHU216DAVISVP2,2013-08-11 08:10:00,
2013-08-11 04:16:00,57.5,56.9,30.09,East,101,0.0,0.0,98,0.00,,,0.00,WUHU216DAVISVP2,2013-08-11 08:16:00,
2013-08-11 04:21:00,57.5,56.9,30.09,East,101,0.0,0.0,98,0.00,,,0.00,WUHU216DAVISVP2,2013-08-11 08:21:00,
2013-08-11 04:26:00,57.5,56.9,30.09,East,101,0.0,0.0,98,0.00,,,0.00,WUHU216DAVISVP2,2013-08-11 08:26:00,
2013-08-11 04:31:00,57.6,57.0,30.09,East,101,0.0,0.0,98,0.00,,,0.00,WUHU216DAVISVP2,2013-08-11 08:31:00,
2013-08-11 04:36:00,57.8,57.5,30.09,East,101,0.0,0.0,99,0.00,,,0.00,WUHU216DAVISVP2,2013-08-11 08:36:00,
2013-08-11 04:41:00,57.9,57.3,30.09,East,101,0.0,0.0,98,0.00,,,0.00,WUHU216DAVISVP2,2013-08-11 08:41:00,
2013-08-11 04:46:00,57.9,57.6,30.09,East,101,0.0,0.0,99,0.00,,,0.00,WUHU216DAVISVP2,2013-08-11 08:46:00,
2013-08-11 04:52:00,57.9,57.6,30.09,East,101,0.0,0.0,99,0.00,,,0.00,WUHU216DAVISVP2,2013-08-11 08:52:00,
2013-08-11 04:57:00,57.8,57.2,30.09,East,101,0.0,0.0,98,0.00,,,0.00,WUHU216DAVISVP2,2013-08-11 08:57:00,
2013-08-11 05:02:00,57.6,57.0,30.09,East,101,0.0,0.0,98,0.00,,,0.00,WUHU216DAVISVP2,2013-08-11 09:02:00,
2013-08-11 05:07:00,57.5,56.9,30.09,East,101,0.0,0.0,98,0.00,,,0.00,WUHU216DAVISVP2,2013-08-11 09:07:00,
2013-08-11 05:12:00,57.4,56.8,30.09,East,101,0.0,0.0,98,0.00,,,0.00,WUHU216DAVISVP2,2013-08-11 09:12:00,
2013-08-11 05:17:00,57.2,56.6,30.09,East,101,0.0,0.0,98,0.00,,,0.00,WUHU216DAVISVP2,2013-08-11 09:17:00,
2013-08-11 05:22:00,57.2,56.6,30.09,East,101,0.0,0.0,98,0.00,,,0.00,WUHU216DAVISVP2,2013-08-11 09:22:00,
2013-08-11 05:27:00,57.2,56.6,30.09,East,101,0.0,0.0,98,0.00,,,0.00,WUHU216DAVISVP2,2013-08-11 09:27:00,
2013-08-11 05:32:00,57.2,56.6,30.09,East,101,0.0,0.0,98,0.00,,,0.00,WUHU216DAVISVP2,2013-08-11 09:32:00,
2013-08-11 05:37:00,57.3,57.0,30.09,East,101,0.0,0.0,99,0.00,,,0.00,WUHU216DAVISVP2,2013-08-11 09:37:00,
2013-08-11 05:42:00,57.3,57.0,30.09,East,101,0.0,0.0,99,0.00,,,0.00,WUHU216DAVISVP2,2013-08-11 09:42:00,
2013-08-11 05:48:00,57.2,56.6,30.09,East,101,0.0,0.0,98,0.00,,,0.00,WUHU216DAVISVP2,2013-08-11 09:48:00,
2013-08-11 05:53:00,57.0,56.4,30.09,East,101,0.0,0.0,98,0.00,,,0.00,WUHU216DAVISVP2,2013-08-11 09:53:00,
2013-08-11 05:58:00,56.8,56.2,30.09,East,101,0.0,0.0,98,0.00,,,0.00,WUHU216DAVISVP2,2013-08-11 09:58:00,
2013-08-11 06:03:00,56.9,56.6,30.09,East,101,0.0,0.0,99,0.00,,,0.00,WUHU216DAVISVP2,2013-08-11 10:03:00,
2013-08-11 06:08:00,56.9,56.6,30.09,East,101,0.0,0.0,99,0.00,,,0.00,WUHU216DAVISVP2,2013-08-11 10:08:00,
2013-08-11 06:13:00,56.8,56.5,30.09,East,101,0.0,0.0,99,0.00,,,0.00,WUHU216DAVISVP2,2013-08-11 10:13:00,
2013-08-11 06:18:00,56.7,56.4,30.10,East,101,0.0,0.0,99,0.00,,,0.00,WUHU216DAVISVP2,2013-08-11 10:18:00,
2013-08-11 06:23:00,56.6,56.0,30.10,East,101,0.0,0.0,98,0.00,,,0.00,WUHU216DAVISVP2,2013-08-11 10:23:00,
2013-08-11 06:28:00,56.4,55.8,30.10,East,101,0.0,0.0,98,0.00,,,0.00,WUHU216DAVISVP2,2013-08-11 10:28:00,
2013-08-11 06:33:00,56.5,56.2,30.10,East,101,0.0,0.0,99,0.00,,,0.00,WUHU216DAVISVP2,2013-08-11 10:33:00,
2013-08-11 06:38:00,56.4,56.1,30.10,East,101,0.0,0.0,99,0.00,,,0.00,WUHU216DAVISVP2,2013-08-11 10:38:00,
2013-08-11 06:43:00,56.4,56.1,30.11,East,101,0.0,0.0,99,0.00,,,0.00,WUHU216DAVISVP2,2013-08-11 10:43:00,
2013-08-11 06:48:00,56.9,56.6,30.11,East,101,0.0,0.0,99,0.00,,,0.00,WUHU216DAVISVP2,2013-08-11 10:48:00,
2013-08-11 06:53:00,57.2,56.9,30.11,East,101,0.0,0.0,99,0.00,,,0.00,WUHU216DAVISVP2,2013-08-11 10:53:00,
2013-08-11 06:59:00,57.3,57.0,30.11,East,101,0.0,0.0,99,0.00,,,0.00,WUHU216DAVISVP2,2013-08-11 10:59:00,
2013-08-11 07:04:00,57.2,56.9,30.11,East,101,0.0,0.0,99,0.00,,,0.00,WUHU216DAVISVP2,2013-08-11 11:04:00,
2013-08-11 07:09:00,57.1,56.8,30.10,East,101,0.0,0.0,99,0.00,,,0.00,WUHU216DAVISVP2,2013-08-11 11:09:00,
2013-08-11 07:14:00,57.0,56.7,30.11,East,101,0.0,0.0,99,0.00,,,0.00,WUHU216DAVISVP2,2013-08-11 11:14:00,
2013-08-11 07:19:00,57.2,56.9,30.10,East,101,0.0,0.0,99,0.00,,,0.00,WUHU216DAVISVP2,2013-08-11 11:19:00,
2013-08-11 07:24:00,57.5,57.2,30.10,East,101,0.0,0.0,99,0.00,,,0.00,WUHU216DAVISVP2,2013-08-11 11:24:00,
2013-08-11 07:29:00,58.2,57.9,30.10,East,101,0.0,0.0,99,0.00,,,0.00,WUHU216DAVISVP2,2013-08-11 11:29:00,
2013-08-11 07:34:00,58.7,58.4,30.11,North,355,0.0,2.0,99,0.00,,,0.00,WUHU216DAVISVP2,2013-08-11 11:34:00,
2013-08-11 07:40:00,59.0,58.7,30.11,North,355,0.0,2.0,99,0.00,,,0.00,WUHU216DAVISVP2,2013-08-11 11:40:00,
2013-08-11 07:45:00,59.2,58.9,30.11,North,355,0.0,2.0,99,0.00,,,0.00,WUHU216DAVISVP2,2013-08-11 11:45:00,
2013-08-11 07:50:00,59.4,59.1,30.11,North,355,0.0,0.0,99,0.00,,,0.00,WUHU216DAVISVP2,2013-08-11 11:50:00,
2013-08-11 07:55:00,59.9,59.6,30.10,North,355,1.0,1.0,99,0.00,,,0.00,WUHU216DAVISVP2,2013-08-11 11:55:00,
2013-08-11 08:00:00,60.1,59.8,30.10,North,355,0.0,1.0,99,0.00,,,0.00,WUHU216DAVISVP2,2013-08-11 12:00:00,
2013-08-11 08:05:00,60.4,60.1,30.10,North,355,0.0,1.0,99,0.00,,,0.00,WUHU216DAVISVP2,2013-08-11 12:05:00,
2013-08-11 08:10:00,60.6,60.3,30.10,NNW,338,1.0,4.0,99,0.00,,,0.00,WUHU216DAVISVP2,2013-08-11 12:10:00,
2013-08-11 08:15:00,60.9,60.6,30.10,NNW,338,0.0,4.0,99,0.00,,,0.00,WUHU216DAVISVP2,2013-08-11 12:15:00,
2013-08-11 08:20:00,61.1,60.8,30.10,NNW,338,1.0,4.0,99,0.00,,,0.00,WUHU216DAVISVP2,2013-08-11 12:20:00,
2013-08-11 08:25:00,61.6,61.3,30.10,NNW,338,0.0,4.0,99,0.00,,,0.00,WUHU216DAVISVP2,2013-08-11 12:25:00,
2013-08-11 08:30:00,62.2,61.9,30.09,NNW,338,0.0,4.0,99,0.00,,,0.00,WUHU216DAVISVP2,2013-08-11 12:30:00,
2013-08-11 08:35:00,63.0,62.7,30.09,NNW,338,0.0,4.0,99,0.00,,,0.00,WUHU216DAVISVP2,2013-08-11 12:35:00,
2013-08-11 08:40:00,63.6,63.0,30.09,NNE,33,0.0,6.0,98,0.00,,,0.00,WUHU216DAVISVP2,2013-08-11 12:40:00,
2013-08-11 08:45:00,64.1,62.9,30.10,NNE,20,2.0,6.0,96,0.00,,,0.00,WUHU216DAVISVP2,2013-08-11 12:45:00,
2013-08-11 08:50:00,64.8,63.3,30.10,NNE,20,0.0,6.0,95,0.00,,,0.00,WUHU216DAVISVP2,2013-08-11 12:50:00,
2013-08-11 08:55:00,65.5,63.1,30.10,ENE,57,1.0,6.0,92,0.00,,,0.00,WUHU216DAVISVP2,2013-08-11 12:55:00,
2013-08-11 09:01:00,65.7,62.4,30.10,East,88,3.0,6.0,89,0.00,,,0.00,WUHU216DAVISVP2,2013-08-11 13:01:00,
2013-08-11 09:06:00,66.0,62.6,30.10,East,88,0.0,6.0,89,0.00,,,0.00,WUHU216DAVISVP2,2013-08-11 13:06:00,
2013-08-11 09:11:00,66.7,62.7,30.10,North,5,2.0,6.0,87,0.00,,,0.00,WUHU216DAVISVP2,2013-08-11 13:11:00,
2013-08-11 09:16:00,67.2,61.9,30.10,NNE,29,1.0,6.0,83,0.00,,,0.00,WUHU216DAVISVP2,2013-08-11 13:16:00,
2013-08-11 09:22:00,67.3,62.0,30.10,ENE,69,1.0,6.0,83,0.00,,,0.00,WUHU216DAVISVP2,2013-08-11 13:22:00,
2013-08-11 09:27:00,67.7,62.1,30.10,ENE,65,0.0,6.0,82,0.00,,,0.00,WUHU216DAVISVP2,2013-08-11 13:27:00,
2013-08-11 09:32:00,67.9,62.3,30.11,ENE,74,1.0,6.0,82,0.00,,,0.00,WUHU216DAVISVP2,2013-08-11 13:32:00,
2013-08-11 09:37:00,68.2,63.2,30.11,ENE,63,1.0,5.0,84,0.00,,,0.00,WUHU216DAVISVP2,2013-08-11 13:37:00,
2013-08-11 09:42:00,68.2,62.5,30.10,NNE,13,1.0,5.0,82,0.00,,,0.00,WUHU216DAVISVP2,2013-08-11 13:42:00,
2013-08-11 09:47:00,68.2,61.9,30.10,NE,44,1.0,7.0,80,0.00,,,0.00,WUHU216DAVISVP2,2013-08-11 13:47:00,
2013-08-11 09:52:00,68.3,62.0,30.11,East,85,6.0,7.0,80,0.00,,,0.00,WUHU216DAVISVP2,2013-08-11 13:52:00,
2013-08-11 09:57:00,68.6,61.8,30.11,East,81,2.0,7.0,79,0.00,,,0.00,WUHU216DAVISVP2,2013-08-11 13:57:00,
2013-08-11 10:02:00,69.2,61.7,30.11,East,97,2.0,7.0,77,0.00,,,0.00,WUHU216DAVISVP2,2013-08-11 14:02:00,
2013-08-11 10:07:00,69.9,62.7,30.11,East,97,1.0,6.0,78,0.00,,,0.00,WUHU216DAVISVP2,2013-08-11 14:07:00,
2013-08-11 10:12:00,70.8,63.0,30.11,East,97,1.0,5.0,76,0.00,,,0.00,WUHU216DAVISVP2,2013-08-11 14:12:00,
2013-08-11 10:17:00,71.3,63.1,30.11,NE,44,4.0,5.0,75,0.00,,,0.00,WUHU216DAVISVP2,2013-08-11 14:17:00,
2013-08-11 10:22:00,71.6,63.4,30.11,North,360,2.0,5.0,75,0.00,,,0.00,WUHU216DAVISVP2,2013-08-11 14:22:00,
2013-08-11 10:27:00,71.9,62.2,30.11,ESE,102,5.0,6.0,71,0.00,,,0.00,WUHU216DAVISVP2,2013-08-11 14:27:00,
2013-08-11 10:32:00,71.8,62.5,30.10,ESE,107,3.0,6.0,72,0.00,,,0.00,WUHU216DAVISVP2,2013-08-11 14:32:00,
2013-08-11 10:38:00,71.9,62.2,30.10,SE,124,2.0,6.0,71,0.00,,,0.00,WUHU216DAVISVP2,2013-08-11 14:38:00,
2013-08-11 10:43:00,72.2,62.8,30.10,ESE,110,0.0,6.0,72,0.00,,,0.00,WUHU216DAVISVP2,2013-08-11 14:43:00,
2013-08-11 10:48:00,72.6,62.8,30.10,ESE,106,4.0,6.0,71,0.00,,,0.00,WUHU216DAVISVP2,2013-08-11 14:48:00,
2013-08-11 10:53:00,72.8,62.6,30.10,ESE,117,0.0,6.0,70,0.00,,,0.00,WUHU216DAVISVP2,2013-08-11 14:53:00,
2013-08-11 10:59:00,73.2,63.0,30.10,East,94,4.0,6.0,70,0.00,,,0.00,WUHU216DAVISVP2,2013-08-11 14:59:00,
2013-08-11 11:04:00,73.4,62.8,30.10,ENE,70,2.0,6.0,69,0.00,,,0.00,WUHU216DAVISVP2,2013-08-11 15:04:00,
2013-08-11 11:09:00,73.6,62.2,30.10,South,169,3.0,8.0,67,0.00,,,0.00,WUHU216DAVISVP2,2013-08-11 15:09:00,
2013-08-11 11:14:00,73.5,62.9,30.10,East,96,2.0,8.0,69,0.00,,,0.00,WUHU216DAVISVP2,2013-08-11 15:14:00,
2013-08-11 11:19:00,74.1,62.7,30.10,SSW,196,4.0,8.0,67,0.00,,,0.00,WUHU216DAVISVP2,2013-08-11 15:19:00,
2013-08-11 11:24:00,74.5,63.5,30.10,East,84,1.0,5.0,68,0.00,,,0.00,WUHU216DAVISVP2,2013-08-11 15:24:00,
2013-08-11 11:29:00,74.9,63.0,30.10,East,81,1.0,6.0,66,0.00,,,0.00,WUHU216DAVISVP2,2013-08-11 15:29:00,
2013-08-11 11:34:00,74.8,63.7,30.10,East,84,1.0,6.0,68,0.00,,,0.00,WUHU216DAVISVP2,2013-08-11 15:34:00,
2013-08-11 11:40:00,75.0,62.7,30.09,West,269,2.0,6.0,65,0.00,,,0.00,WUHU216DAVISVP2,2013-08-11 15:40:00,
2013-08-11 11:45:00,74.8,62.0,30.10,West,262,0.0,7.0,64,0.00,,,0.00,WUHU216DAVISVP2,2013-08-11 15:45:00,
2013-08-11 11:50:00,75.5,62.2,30.10,NW,310,1.0,7.0,63,0.00,,,0.00,WUHU216DAVISVP2,2013-08-11 15:50:00,
2013-08-11 11:55:00,75.5,63.6,30.09,West,271,6.0,8.0,66,0.00,,,0.00,WUHU216DAVISVP2,2013-08-11 15:55:00,
2013-08-11 12:00:00,75.5,63.1,30.10,West,269,4.0,8.0,65,0.00,,,0.00,WUHU216DAVISVP2,2013-08-11 16:00:00,
2013-08-11 12:05:00,75.6,62.8,30.09,West,279,5.0,8.0,64,0.00,,,0.00,WUHU216DAVISVP2,2013-08-11 16:05:00,
2013-08-11 12:10:00,75.3,61.6,30.09,West,273,1.0,8.0,62,0.00,,,0.00,WUHU216DAVISVP2,2013-08-11 16:10:00,
2013-08-11 12:15:00,75.3,62.1,30.09,West,261,1.0,6.0,63,0.00,,,0.00,WUHU216DAVISVP2,2013-08-11 16:15:00,
2013-08-11 12:20:00,75.2,61.5,30.09,West,261,2.0,6.0,62,0.00,,,0.00,WUHU216DAVISVP2,2013-08-11 16:20:00,
2013-08-11 12:25:00,75.6,61.9,30.09,West,270,1.0,6.0,62,0.00,,,0.00,WUHU216DAVISVP2,2013-08-11 16:25:00,
2013-08-11 12:30:00,76.2,62.4,30.09,WNW,285,2.0,6.0,62,0.00,,,0.00,WUHU216DAVISVP2,2013-08-11 16:30:00,
2013-08-11 12:35:00,76.6,62.4,30.08,North,349,1.0,5.0,61,0.00,,,0.00,WUHU216DAVISVP2,2013-08-11 16:35:00,
2013-08-11 12:40:00,76.6,61.9,30.08,WNW,302,2.0,5.0,60,0.00,,,0.00,WUHU216DAVISVP2,2013-08-11 16:40:00,
2013-08-11 12:45:00,76.5,61.8,30.08,WNW,303,0.0,5.0,60,0.00,,,0.00,WUHU216DAVISVP2,2013-08-11 16:45:00,
2013-08-11 12:51:00,76.0,61.3,30.08,WNW,288,5.0,6.0,60,0.00,,,0.00,WUHU216DAVISVP2,2013-08-11 16:51:00,
2013-08-11 12:56:00,75.8,61.1,30.08,West,281,2.0,6.0,60,0.00,,,0.00,WUHU216DAVISVP2,2013-08-11 16:56:00,
2013-08-11 13:01:00,76.0,59.3,30.08,NW,318,0.0,6.0,56,0.00,,,0.00,WUHU216DAVISVP2,2013-08-11 17:01:00,
2013-08-11 13:06:00,76.9,61.2,30.08,South,173,2.0,6.0,58,0.00,,,0.00,WUHU216DAVISVP2,2013-08-11 17:06:00,
2013-08-11 13:11:00,77.1,59.9,30.08,West,262,0.0,9.0,55,0.00,,,0.00,WUHU216DAVISVP2,2013-08-11 17:11:00,
2013-08-11 13:16:00,77.3,62.1,30.08,South,184,7.0,9.0,59,0.00,,,0.00,WUHU216DAVISVP2,2013-08-11 17:16:00,
2013-08-11 13:22:00,77.0,58.7,30.08,SW,234,3.0,9.0,53,0.00,,,0.00,WUHU216DAVISVP2,2013-08-11 17:22:00,
2013-08-11 13:27:00,76.8,60.1,30.08,SSW,196,0.0,9.0,56,0.00,,,0.00,WUHU216DAVISVP2,2013-08-11 17:27:00,
2013-08-11 13:32:00,77.1,58.8,30.08,NW,319,0.0,10.0,53,0.00,,,0.00,WUHU216DAVISVP2,2013-08-11 17:32:00,
2013-08-11 13:37:00,77.6,59.8,30.08,West,273,2.0,10.0,54,0.00,,,0.00,WUHU216DAVISVP2,2013-08-11 17:37:00,
2013-08-11 13:42:00,77.5,59.7,30.08,WSW,250,5.0,10.0,54,0.00,,,0.00,WUHU216DAVISVP2,2013-08-11 17:42:00,
2013-08-11 13:47:00,77.6,58.7,30.08,SW,228,1.0,10.0,52,0.00,,,0.00,WUHU216DAVISVP2,2013-08-11 17:47:00,
2013-08-11 13:52:00,78.0,59.1,30.08,WSW,255,1.0,10.0,52,0.00,,,0.00,WUHU216DAVISVP2,2013-08-11 17:52:00,
2013-08-11 13:57:00,77.8,60.0,30.08,West,263,8.0,11.0,54,0.00,,,0.00,WUHU216DAVISVP2,2013-08-11 17:57:00,
2013-08-11 14:02:00,76.8,59.6,30.08,WSW,255,5.0,11.0,55,0.00,,,0.00,WUHU216DAVISVP2,2013-08-11 18:02:00,
2013-08-11 14:07:00,76.6,61.9,30.08,SSW,205,2.0,11.0,60,0.00,,,0.00,WUHU216DAVISVP2,2013-08-11 18:07:00,
2013-08-11 14:12:00,77.2,61.3,30.08,West,263,1.0,11.0,58,0.00,,,0.00,WUHU216DAVISVP2,2013-08-11 18:12:00,
2013-08-11 14:18:00,77.7,60.8,30.07,West,269,1.0,11.0,56,0.00,,,0.00,WUHU216DAVISVP2,2013-08-11 18:18:00,
2013-08-11 14:23:00,78.1,60.6,30.07,SW,231,8.0,13.0,55,0.00,,,0.00,WUHU216DAVISVP2,2013-08-11 18:23:00,
2013-08-11 14:28:00,78.4,61.6,30.07,NW,310,6.0,13.0,56,0.00,,,0.00,WUHU216DAVISVP2,2013-08-11 18:28:00,
2013-08-11 14:33:00,78.0,60.0,30.07,SSW,208,7.0,13.0,54,0.00,,,0.00,WUHU216DAVISVP2,2013-08-11 18:33:00,
2013-08-11 14:38:00,78.0,61.2,30.06,West,264,8.0,13.0,56,0.00,,,0.00,WUHU216DAVISVP2,2013-08-11 18:38:00,
2013-08-11 14:43:00,77.5,61.3,30.06,NW,305,7.0,9.0,57,0.00,,,0.00,WUHU216DAVISVP2,2013-08-11 18:43:00,
2013-08-11 14:48:00,77.2,62.0,30.06,West,263,8.0,10.0,59,0.00,,,0.00,WUHU216DAVISVP2,2013-08-11 18:48:00,
2013-08-11 14:53:00,76.7,61.0,30.06,WNW,283,6.0,10.0,58,0.00,,,0.00,WUHU216DAVISVP2,2013-08-11 18:53:00,
2013-08-11 14:58:00,77.2,62.5,30.06,SW,235,10.0,10.0,60,0.00,,,0.00,WUHU216DAVISVP2,2013-08-11 18:58:00,
2013-08-11 15:03:00,77.6,61.7,30.06,NW,309,8.0,12.0,58,0.00,,,0.00,WUHU216DAVISVP2,2013-08-11 19:03:00,
2013-08-11 15:08:00,77.8,62.0,30.06,SW,232,7.0,12.0,58,0.00,,,0.00,WUHU216DAVISVP2,2013-08-11 19:08:00,
2013-08-11 15:14:00,78.2,62.2,30.06,WSW,254,8.0,13.0,58,0.00,,,0.00,WUHU216DAVISVP2,2013-08-11 19:14:00,
2013-08-11 15:19:00,77.9,63.4,30.06,West,265,4.0,13.0,61,0.00,,,0.00,WUHU216DAVISVP2,2013-08-11 19:19:00,
2013-08-11 15:24:00,78.4,62.9,30.06,South,185,5.0,13.0,59,0.00,,,0.00,WUHU216DAVISVP2,2013-08-11 19:24:00,
2013-08-11 15:29:00,78.0,62.2,30.06,West,275,9.0,13.0,58,0.00,,,0.00,WUHU216DAVISVP2,2013-08-11 19:29:00,
2013-08-11 15:34:00,78.0,62.7,30.06,West,264,8.0,12.0,59,0.00,,,0.00,WUHU216DAVISVP2,2013-08-11 19:34:00,
2013-08-11 15:39:00,78.3,63.0,30.06,WSW,244,7.0,12.0,59,0.00,,,0.00,WUHU216DAVISVP2,2013-08-11 19:39:00,
2013-08-11 15:44:00,78.0,63.2,30.06,West,261,11.0,12.0,60,0.00,,,0.00,WUHU216DAVISVP2,2013-08-11 19:44:00,
2013-08-11 15:49:00,77.5,64.6,30.06,WSW,251,8.0,12.0,64,0.00,,,0.00,WUHU216DAVISVP2,2013-08-11 19:49:00,
2013-08-11 15:55:00,78.1,64.3,30.06,WNW,288,11.0,12.0,62,0.00,,,0.00,WUHU216DAVISVP2,2013-08-11 19:55:00,
2013-08-11 16:00:00,77.4,62.6,30.06,WSW,257,8.0,13.0,60,0.00,,,0.00,WUHU216DAVISVP2,2013-08-11 20:00:00,
2013-08-11 16:05:00,76.6,62.8,30.05,West,269,5.0,13.0,62,0.00,,,0.00,WUHU216DAVISVP2,2013-08-11 20:05:00,
2013-08-11 16:10:00,76.6,62.8,30.05,West,262,6.0,13.0,62,0.00,,,0.00,WUHU216DAVISVP2,2013-08-11 20:10:00,
2013-08-11 16:15:00,76.7,63.4,30.05,West,277,8.0,13.0,63,0.00,,,0.00,WUHU216DAVISVP2,2013-08-11 20:15:00,
2013-08-11 16:20:00,76.6,63.1,30.05,WSW,257,4.0,11.0,63,0.00,,,0.00,WUHU216DAVISVP2,2013-08-11 20:20:00,
2013-08-11 16:25:00,76.9,63.6,30.05,West,265,12.0,12.0,63,0.00,,,0.00,WUHU216DAVISVP2,2013-08-11 20:25:00,
2013-08-11 16:31:00,77.6,63.5,30.05,WSW,237,6.0,13.0,62,0.00,,,0.00,WUHU216DAVISVP2,2013-08-11 20:31:00,
2013-08-11 16:36:00,78.2,62.9,30.04,WSW,256,11.0,13.0,59,0.00,,,0.00,WUHU216DAVISVP2,2013-08-11 20:36:00,
2013-08-11 16:41:00,78.2,63.2,30.04,SW,226,8.0,13.0,60,0.00,,,0.00,WUHU216DAVISVP2,2013-08-11 20:41:00,
2013-08-11 16:46:00,78.5,63.9,30.04,WSW,238,7.0,13.0,61,0.00,,,0.00,WUHU216DAVISVP2,2013-08-11 20:46:00,
2013-08-11 16:51:00,78.4,62.4,30.04,West,273,9.0,16.0,58,0.00,,,0.00,WUHU216DAVISVP2,2013-08-11 20:51:00,
2013-08-11 16:56:00,77.3,61.9,30.04,SW,232,8.0,16.0,59,0.00,,,0.00,WUHU216DAVISVP2,2013-08-11 20:56:00,
2013-08-11 17:01:00,77.4,62.9,30.04,West,259,5.0,16.0,61,0.00,,,0.00,WUHU216DAVISVP2,2013-08-11 21:01:00,
2013-08-11 17:06:00,77.9,62.4,30.04,WSW,251,9.0,16.0,59,0.00,,,0.00,WUHU216DAVISVP2,2013-08-11 21:06:00,
2013-08-11 17:11:00,78.6,62.1,30.04,SW,233,8.0,15.0,57,0.00,,,0.00,WUHU216DAVISVP2,2013-08-11 21:11:00,
2013-08-11 17:16:00,78.5,62.0,30.04,West,262,12.0,12.0,57,0.00,,,0.00,WUHU216DAVISVP2,2013-08-11 21:16:00,
2013-08-11 17:22:00,78.4,61.9,30.04,WSW,254,9.0,12.0,57,0.00,,,0.00,WUHU216DAVISVP2,2013-08-11 21:22:00,
2013-08-11 17:27:00,78.5,62.5,30.03,West,267,5.0,12.0,58,0.00,,,0.00,WUHU216DAVISVP2,2013-08-11 21:27:00,
2013-08-11 17:32:00,78.8,62.8,30.04,WSW,251,5.0,12.0,58,0.00,,,0.00,WUHU216DAVISVP2,2013-08-11 21:32:00,
2013-08-11 17:37:00,78.6,62.1,30.03,West,266,7.0,12.0,57,0.00,,,0.00,WUHU216DAVISVP2,2013-08-11 21:37:00,
2013-08-11 17:42:00,78.3,61.8,30.03,WSW,254,10.0,13.0,57,0.00,,,0.00,WUHU216DAVISVP2,2013-08-11 21:42:00,
2013-08-11 17:47:00,78.1,61.1,30.03,WSW,257,8.0,13.0,56,0.00,,,0.00,WUHU216DAVISVP2,2013-08-11 21:47:00,
2013-08-11 17:52:00,78.0,61.0,30.03,West,259,7.0,13.0,56,0.00,,,0.00,WUHU216DAVISVP2,2013-08-11 21:52:00,
2013-08-11 17:57:00,78.0,61.7,30.03,West,271,8.0,12.0,57,0.00,,,0.00,WUHU216DAVISVP2,2013-08-11 21:57:00,
2013-08-11 18:02:00,78.0,61.2,30.03,West,273,6.0,11.0,56,0.00,,,0.00,WUHU216DAVISVP2,2013-08-11 22:02:00,
2013-08-11 18:08:00,77.9,60.4,30.03,WSW,238,6.0,12.0,55,0.00,,,0.00,WUHU216DAVISVP2,2013-08-11 22:08:00,
2013-08-11 18:13:00,78.1,60.6,30.03,West,259,10.0,12.0,55,0.00,,,0.00,WUHU216DAVISVP2,2013-08-11 22:13:00,
2013-08-11 18:18:00,77.9,60.6,30.03,West,265,6.0,13.0,55,0.00,,,0.00,WUHU216DAVISVP2,2013-08-11 22:18:00,
2013-08-11 18:23:00,77.8,61.0,30.03,WSW,249,8.0,13.0,56,0.00,,,0.00,WUHU216DAVISVP2,2013-08-11 22:23:00,
2013-08-11 18:28:00,78.0,60.2,30.02,WSW,254,8.0,13.0,54,0.00,,,0.00,WUHU216DAVISVP2,2013-08-11 22:28:00,
2013-08-11 18:33:00,78.0,59.6,30.02,South,190,7.0,12.0,53,0.00,,,0.00,WUHU216DAVISVP2,2013-08-11 22:33:00,
2013-08-11 18:38:00,78.1,59.7,30.02,SW,232,7.0,12.0,53,0.00,,,0.00,WUHU216DAVISVP2,2013-08-11 22:38:00,
2013-08-11 18:43:00,78.0,60.5,30.02,SW,229,5.0,12.0,55,0.00,,,0.00,WUHU216DAVISVP2,2013-08-11 22:43:00,
2013-08-11 18:48:00,78.0,62.0,30.02,South,179,4.0,10.0,58,0.00,,,0.00,WUHU216DAVISVP2,2013-08-11 22:48:00,
2013-08-11 18:53:00,77.7,61.3,30.02,West,264,5.0,10.0,57,0.00,,,0.00,WUHU216DAVISVP2,2013-08-11 22:53:00,
2013-08-11 18:58:00,77.4,61.7,30.02,WSW,251,7.0,10.0,58,0.00,,,0.00,WUHU216DAVISVP2,2013-08-11 22:58:00,
2013-08-11 19:04:00,77.1,60.9,30.02,West,262,6.0,8.0,57,0.00,,,0.00,WUHU216DAVISVP2,2013-08-11 23:04:00,
2013-08-11 19:09:00,76.9,60.7,30.02,WSW,247,6.0,8.0,57,0.00,,,0.00,WUHU216DAVISVP2,2013-08-11 23:09:00,
2013-08-11 19:14:00,76.6,61.4,30.02,West,273,6.0,8.0,59,0.00,,,0.00,WUHU216DAVISVP2,2013-08-11 23:14:00,
2013-08-11 19:19:00,76.4,61.2,30.02,West,277,4.0,8.0,59,0.00,,,0.00,WUHU216DAVISVP2,2013-08-11 23:19:00,
2013-08-11 19:24:00,76.3,61.4,30.02,West,267,4.0,8.0,60,0.00,,,0.00,WUHU216DAVISVP2,2013-08-11 23:24:00,
2013-08-11 19:29:00,76.1,61.7,30.02,WSW,257,3.0,7.0,61,0.00,,,0.00,WUHU216DAVISVP2,2013-08-11 23:29:00,
2013-08-11 19:34:00,75.8,62.5,30.03,WSW,254,1.0,6.0,63,0.00,,,0.00,WUHU216DAVISVP2,2013-08-11 23:34:00,
2013-08-11 19:39:00,75.4,62.6,30.03,WSW,254,4.0,6.0,64,0.00,,,0.00,WUHU216DAVISVP2,2013-08-11 23:39:00,
2013-08-11 19:45:00,74.8,62.0,30.03,West,261,5.0,7.0,64,0.00,,,0.00,WUHU216DAVISVP2,2013-08-11 23:45:00,
2013-08-11 19:50:00,74.2,61.9,30.03,WSW,254,0.0,7.0,65,0.00,,,0.00,WUHU216DAVISVP2,2013-08-11 23:50:00,
2013-08-11 19:55:00,73.9,62.0,30.03,WSW,254,0.0,7.0,66,0.00,,,0.00,WUHU216DAVISVP2,2013-08-11 23:55:00,
2013-08-11 20:00:00,73.6,61.5,30.03,WSW,254,0.0,7.0,66,0.00,,,0.00,WUHU216DAVISVP2,2013-08-12 00:00:00,
2013-08-11 20:05:00,73.4,61.8,30.03,WSW,254,0.0,4.0,67,0.00,,,0.00,WUHU216DAVISVP2,2013-08-12 00:05:00,
2013-08-11 20:10:00,73.4,61.8,30.03,WSW,254,0.0,2.0,67,0.00,,,0.00,WUHU216DAVISVP2,2013-08-12 00:10:00,
2013-08-11 20:15:00,73.3,62.7,30.03,WSW,254,0.0,2.0,69,0.00,,,0.00,WUHU216DAVISVP2,2013-08-12 00:15:00,
2013-08-11 20:20:00,73.1,63.3,30.03,WSW,254,0.0,1.0,71,0.00,,,0.00,WUHU216DAVISVP2,2013-08-12 00:20:00,
2013-08-11 20:25:00,72.8,63.4,30.03,WSW,254,0.0,0.0,72,0.00,,,0.00,WUHU216DAVISVP2,2013-08-12 00:25:00,
2013-08-11 20:30:00,72.3,62.9,30.03,WSW,254,0.0,0.0,72,0.00,,,0.00,WUHU216DAVISVP2,2013-08-12 00:30:00,
2013-08-11 20:35:00,71.9,62.9,30.03,WSW,254,0.0,0.0,73,0.00,,,0.00,WUHU216DAVISVP2,2013-08-12 00:35:00,
2013-08-11 20:40:00,71.4,62.5,30.03,WSW,254,0.0,0.0,73,0.00,,,0.00,WUHU216DAVISVP2,2013-08-12 00:40:00,
2013-08-11 20:45:00,71.1,62.2,30.03,WSW,254,0.0,0.0,73,0.00,,,0.00,WUHU216DAVISVP2,2013-08-12 00:45:00,
2013-08-11 20:50:00,70.8,62.6,30.03,WSW,254,0.0,0.0,75,0.00,,,0.00,WUHU216DAVISVP2,2013-08-12 00:50:00,
2013-08-11 20:55:00,70.4,63.3,30.03,WSW,254,0.0,0.0,78,0.00,,,0.00,WUHU216DAVISVP2,2013-08-12 00:55:00,
2013-08-11 21:00:00,69.9,63.5,30.03,WSW,254,0.0,0.0,80,0.00,,,0.00,WUHU216DAVISVP2,2013-08-12 01:00:00,
2013-08-11 21:05:00,69.5,63.5,30.03,WSW,254,0.0,0.0,81,0.00,,,0.00,WUHU216DAVISVP2,2013-08-12 01:05:00,
2013-08-11 21:11:00,69.0,63.3,30.04,WSW,254,0.0,0.0,82,0.00,,,0.00,WUHU216DAVISVP2,2013-08-12 01:11:00,
2013-08-11 21:16:00,68.8,63.1,30.04,WSW,254,0.0,0.0,82,0.00,,,0.00,WUHU216DAVISVP2,2013-08-12 01:16:00,
2013-08-11 21:21:00,68.4,63.1,30.04,WSW,254,0.0,0.0,83,0.00,,,0.00,WUHU216DAVISVP2,2013-08-12 01:21:00,
2013-08-11 21:26:00,68.0,63.0,30.04,WSW,254,0.0,0.0,84,0.00,,,0.00,WUHU216DAVISVP2,2013-08-12 01:26:00,
2013-08-11 21:31:00,67.7,63.0,30.04,WSW,254,0.0,0.0,85,0.00,,,0.00,WUHU216DAVISVP2,2013-08-12 01:31:00,
2013-08-11 21:36:00,67.5,62.9,30.04,WSW,254,0.0,0.0,85,0.00,,,0.00,WUHU216DAVISVP2,2013-08-12 01:36:00,
2013-08-11 21:41:00,67.2,62.6,30.04,WSW,254,0.0,0.0,85,0.00,,,0.00,WUHU216DAVISVP2,2013-08-12 01:41:00,
2013-08-11 21:46:00,67.0,61.7,30.04,WSW,254,0.0,0.0,83,0.00,,,0.00,WUHU216DAVISVP2,2013-08-12 01:46:00,
2013-08-11 21:51:00,67.0,62.4,30.04,WSW,254,0.0,0.0,85,0.00,,,0.00,WUHU216DAVISVP2,2013-08-12 01:51:00,
2013-08-11 21:56:00,66.6,62.3,30.05,WSW,254,0.0,0.0,86,0.00,,,0.00,WUHU216DAVISVP2,2013-08-12 01:56:00,
2013-08-11 22:02:00,66.3,62.6,30.05,WSW,254,0.0,0.0,88,0.00,,,0.00,WUHU216DAVISVP2,2013-08-12 02:02:00,
2013-08-11 22:07:00,66.3,62.9,30.05,WSW,254,0.0,0.0,89,0.00,,,0.00,WUHU216DAVISVP2,2013-08-12 02:07:00,
2013-08-11 22:12:00,66.3,62.6,30.05,WSW,254,0.0,0.0,88,0.00,,,0.00,WUHU216DAVISVP2,2013-08-12 02:12:00,
2013-08-11 22:17:00,66.5,62.2,30.05,WSW,254,0.0,0.0,86,0.00,,,0.00,WUHU216DAVISVP2,2013-08-12 02:17:00,
2013-08-11 22:22:00,66.6,62.3,30.05,WSW,254,0.0,0.0,86,0.00,,,0.00,WUHU216DAVISVP2,2013-08-12 02:22:00,
2013-08-11 22:27:00,66.6,62.0,30.05,WSW,254,0.0,0.0,85,0.00,,,0.00,WUHU216DAVISVP2,2013-08-12 02:27:00,
2013-08-11 22:32:00,66.5,62.5,30.05,WSW,254,0.0,0.0,87,0.00,,,0.00,WUHU216DAVISVP2,2013-08-12 02:32:00,
2013-08-11 22:37:00,66.2,62.2,30.05,WSW,254,1.0,1.0,87,0.00,,,0.00,WUHU216DAVISVP2,2013-08-12 02:37:00,
2013-08-11 22:42:00,66.2,61.9,30.05,WSW,254,0.0,2.0,86,0.00,,,0.00,WUHU216DAVISVP2,2013-08-12 02:42:00,
2013-08-11 22:47:00,66.3,62.0,30.05,WSW,254,0.0,2.0,86,0.00,,,0.00,WUHU216DAVISVP2,2013-08-12 02:47:00,
2013-08-11 22:52:00,66.2,61.9,30.05,WSW,254,0.0,2.0,86,0.00,,,0.00,WUHU216DAVISVP2,2013-08-12 02:52:00,
2013-08-11 22:57:00,65.9,61.9,30.05,WSW,254,0.0,2.0,87,0.00,,,0.00,WUHU216DAVISVP2,2013-08-12 02:57:00,
2013-08-11 23:02:00,65.3,62.0,30.05,WSW,254,0.0,0.0,89,0.00,,,0.00,WUHU216DAVISVP2,2013-08-12 03:02:00,
2013-08-11 23:08:00,64.9,61.9,30.06,WSW,254,0.0,0.0,90,0.00,,,0.00,WUHU216DAVISVP2,2013-08-12 03:08:00,
2013-08-11 23:13:00,64.5,61.5,30.06,WSW,254,0.0,0.0,90,0.00,,,0.00,WUHU216DAVISVP2,2013-08-12 03:13:00,
2013-08-11 23:18:00,64.3,61.6,30.06,WSW,254,0.0,0.0,91,0.00,,,0.00,WUHU216DAVISVP2,2013-08-12 03:18:00,
2013-08-11 23:23:00,64.1,61.4,30.06,WSW,254,0.0,0.0,91,0.00,,,0.00,WUHU216DAVISVP2,2013-08-12 03:23:00,
2013-08-11 23:28:00,64.0,61.3,30.06,WSW,254,0.0,0.0,91,0.00,,,0.00,WUHU216DAVISVP2,2013-08-12 03:28:00,
2013-08-11 23:33:00,63.8,61.4,30.06,WSW,254,0.0,0.0,92,0.00,,,0.00,WUHU216DAVISVP2,2013-08-12 03:33:00,
2013-08-11 23:38:00,63.6,61.2,30.06,WSW,254,0.0,0.0,92,0.00,,,0.00,WUHU216DAVISVP2,2013-08-12 03:38:00,
2013-08-11 23:43:00,63.2,60.8,30.06,WSW,254,0.0,0.0,92,0.00,,,0.00,WUHU216DAVISVP2,2013-08-12 03:43:00,
2013-08-11 23:48:00,63.0,60.6,30.06,WSW,254,0.0,0.0,92,0.00,,,0.00,WUHU216DAVISVP2,2013-08-12 03:48:00,
2013-08-11 23:53:00,62.9,60.5,30.05,WSW,254,0.0,0.0,92,0.00,,,0.00,WUHU216DAVISVP2,2013-08-12 03:53:00,
2013-08-11 23:59:00,62.8,60.7,30.06,WSW,254,0.0,0.0,93,0.00,,,0.00,WUHU216DAVISVP2,2013-08-12 03:59:00,